DELTA 1 DEB

Satellite information

Favourite Embed

Satellite Type and Status

DEBRISIN ORBIT

Key statistics

Satellite DELTA 1 DEB at a glance.

Uptime

17875

Days in orbit

Revolutions

≈ 13.2

Per day

Orbit

SSO

Sun Synchronous Orbit

Inclination

101.9

Latest

Satellite identification and parameters

Extended collection of information and parameters for DELTA 1 DEB.

Object identification

Identified? True

Debris? True

Object name: DELTA 1 DEB

International designator: 1976-077AT

Object number (NORAD): 10746

Object ID (CCSDS): 10746

Country: UNITED STATES OF AMERICA (US)

Current information (Y/N): Y

RCS size: SMALL

Orbital parameters

Period: 109.017 minutes

Inclination: 101.9124 deg

SMA: 7559.455 km

Apoapsis: 1391.467 km

Periapsis: 971.173 km

RAAN: 359.5177 deg

Eccentricy: 0.0277992

Argument of periapsis: 339.1318 deg

Mean anomaly: 86.4085 deg

Mean motion: 13.20891143 rev/day

Mean motion (dot): 0.00002064 rev/day2

B* drag term: 0.0042482 1/REarth

Two-line elements (TLE)

Creation date: July 6, 2025, 6:05 p.m.

Reference frame: TEME

Reference center: EARTH

Epoch: July 6, 2025, 8:58 a.m. UTC

TLE line 0: 0 DELTA 1 DEB

TLE line 1: 1 10746U 76077AT 25187.37369817 .00002064 00000-0 42482-2 0 9996

TLE line 2: 2 10746 101.9124 359.5177 0277992 339.1318 86.4085 13.20891143307439

Live tracking on map

Real-time ground track for satellite DELTA 1 DEB.

In-orbit conjunctions

A list of the most updated potential collisions computed for object DELTA 1 DEB.

Target Orbit TCA Probability of collision Miss distance Type
EXPLORER 20 LEO 2024-11-27 06:02:29 0.0001129202 639.0 (m) PAYLOAD

Associated space launch

Meteorological satellite using radiometric imaging

DELTA 1 DEB was lifted into orbit during the mission ‘Delta 2310 | NOAA 5’, on board a Delta 2310 space rocket.

The launch took place on July 29, 1976, 5:07 p.m. from Space Launch Complex 2W.

For more information about the launch, click the button.

Launch to space Delta 2310 | NOAA 5
Delta 2310 | NOAA 5

Agency: N/A

Status: Launch Successful

Launch date: July 29, 1976, 5:07 p.m. UTC

Rocket: Delta 2310

Launch pad: Space Launch Complex 2W

Location: Vandenberg SFB, CA, USA

...

Latest news about this satellite

There are no fresh news available about this satellite. Check back as we update our databases every day.


Newsletter sign-up

Weekly statistics, charts and insights to help you stay on top of the space industry.